owner,sensor,date,latitude,longitude,vertical_datum,mass_concentration_of_oxygen_in_sea_water,qcFlag 
SCCF RECON,ioos:station:SCCF:56:1,2017-06-01T00:00:00Z,26.4645,-82.1044,1.73,8.13,1111122 
SCCF RECON,ioos:station:SCCF:56:1,2017-06-01T01:00:00Z,26.4645,-82.1044,1.66,8.32,1111122 
SCCF RECON,ioos:station:SCCF:56:1,2017-06-01T02:00:00Z,26.4645,-82.1044,1.6,8.11,1111122 
SCCF RECON,ioos:station:SCCF:56:1,2017-06-01T03:00:00Z,26.4645,-82.1044,1.49,5.89,1111122 
SCCF RECON,ioos:station:SCCF:56:1,2017-06-01T04:00:00Z,26.4645,-82.1044,1.38,4.61,1111122 
SCCF RECON,ioos:station:SCCF:56:1,2017-06-01T05:00:00Z,26.4645,-82.1044,1.28,3.9,1111122 
SCCF RECON,ioos:station:SCCF:56:1,2017-06-01T06:00:00Z,26.4645,-82.1044,1.2,3.39,1111122 
SCCF RECON,ioos:station:SCCF:56:1,2017-06-01T07:00:00Z,26.4645,-82.1044,1.22,3.15,1111122 
SCCF RECON,ioos:station:SCCF:56:1,2017-06-01T08:00:00Z,26.4645,-82.1044,1.35,4.7,1111122 
SCCF RECON,ioos:station:SCCF:56:1,2017-06-01T09:00:00Z,26.4645,-82.1044,1.499,3.96,1111122 
SCCF RECON,ioos:station:SCCF:56:1,2017-06-01T10:00:00Z,26.4645,-82.1044,1.619,4.09,1111122 
SCCF RECON,ioos:station:SCCF:56:1,2017-06-01T11:00:00Z,26.4645,-82.1044,1.7,4.34,1111122 
SCCF RECON,ioos:station:SCCF:56:1,2017-06-01T12:00:00Z,26.4645,-82.1044,1.73,4.62,1111122 
SCCF RECON,ioos:station:SCCF:56:1,2017-06-01T13:00:00Z,26.4645,-82.1044,1.74,5.26,1111122 
SCCF RECON,ioos:station:SCCF:56:1,2017-06-01T14:00:00Z,26.4645,-82.1044,1.68,4.84,1111122 
SCCF RECON,ioos:station:SCCF:56:1,2017-06-01T15:00:00Z,26.4645,-82.1044,1.618,5.03,1111122 
SCCF RECON,ioos:station:SCCF:56:1,2017-06-01T16:00:00Z,26.4645,-82.1044,1.58,5.33,1111122 
SCCF RECON,ioos:station:SCCF:56:1,2017-06-01T17:00:00Z,26.4645,-82.1044,1.529,5.4,1111122 
SCCF RECON,ioos:station:SCCF:56:1,2017-06-01T18:00:00Z,26.4645,-82.1044,1.47,5.11,1111122 
SCCF RECON,ioos:station:SCCF:56:1,2017-06-01T19:00:00Z,26.4645,-82.1044,1.45,6.02,1111122 
SCCF RECON,ioos:station:SCCF:56:1,2017-06-01T20:00:00Z,26.4645,-82.1044,1.5,6.69,1111122 
SCCF RECON,ioos:station:SCCF:56:1,2017-06-01T21:00:00Z,26.4645,-82.1044,1.586,8.98,1111122 
SCCF RECON,ioos:station:SCCF:56:1,2017-06-01T22:00:00Z,26.4645,-82.1044,1.64,9.07,1111122 
SCCF RECON,ioos:station:SCCF:56:1,2017-06-01T23:00:00Z,26.4645,-82.1044,1.68,8.2,1111122 
SCCF RECON,ioos:station:SCCF:56:1,2017-06-02T00:00:00Z,26.4645,-82.1044,1.72,7.62,1111122 
SCCF RECON,ioos:station:SCCF:56:1,2017-06-02T01:00:00Z,26.4645,-82.1044,1.72,8.32,1111122 
SCCF RECON,ioos:station:SCCF:56:1,2017-06-02T02:00:00Z,26.4645,-82.1044,1.68,7.47,1111122 
SCCF RECON,ioos:station:SCCF:56:1,2017-06-02T03:00:00Z,26.4645,-82.1044,1.611,7.58,1111122 
SCCF RECON,ioos:station:SCCF:56:1,2017-06-02T04:00:00Z,26.4645,-82.1044,1.51,7.22,1111122 
SCCF RECON,ioos:station:SCCF:56:1,2017-06-02T05:00:00Z,26.4645,-82.1044,1.4,5.14,1111122 
SCCF RECON,ioos:station:SCCF:56:1,2017-06-02T06:00:00Z,26.4645,-82.1044,1.31,3.76,1111122 
SCCF RECON,ioos:station:SCCF:56:1,2017-06-02T07:00:00Z,26.4645,-82.1044,1.26,3.12,1111122 
SCCF RECON,ioos:station:SCCF:56:1,2017-06-02T08:00:00Z,26.4645,-82.1044,1.31,3.05,1111122 
SCCF RECON,ioos:station:SCCF:56:1,2017-06-02T09:00:00Z,26.4645,-82.1044,1.44,3.41,1111122 
SCCF RECON,ioos:station:SCCF:56:1,2017-06-02T10:00:00Z,26.4645,-82.1044,1.56,4.25,1111122 
SCCF RECON,ioos:station:SCCF:56:1,2017-06-02T11:00:00Z,26.4645,-82.1044,1.65,4.35,1111122 
SCCF RECON,ioos:station:SCCF:56:1,2017-06-02T12:00:00Z,26.4645,-82.1044,1.72,3.96,1111122 
SCCF RECON,ioos:station:SCCF:56:1,2017-06-02T13:00:00Z,26.4645,-82.1044,1.8,3.96,1111122 
SCCF RECON,ioos:station:SCCF:56:1,2017-06-02T14:00:00Z,26.4645,-82.1044,1.799,4.67,1111122 
SCCF RECON,ioos:station:SCCF:56:1,2017-06-02T15:00:00Z,26.4645,-82.1044,1.77,4.58,1111122 
SCCF RECON,ioos:station:SCCF:56:1,2017-06-02T16:00:00Z,26.4645,-82.1044,1.68,4.39,1111122 
SCCF RECON,ioos:station:SCCF:56:1,2017-06-02T17:00:00Z,26.4645,-82.1044,1.57,4.38,1111122 
SCCF RECON,ioos:station:SCCF:56:1,2017-06-02T18:00:00Z,26.4645,-82.1044,1.508,4.36,1111122 
SCCF RECON,ioos:station:SCCF:56:1,2017-06-02T19:00:00Z,26.4645,-82.1044,1.41,3.91,1111122 
SCCF RECON,ioos:station:SCCF:56:1,2017-06-02T20:00:00Z,26.4645,-82.1044,1.43,4.45,1111122 
SCCF RECON,ioos:station:SCCF:56:1,2017-06-02T21:00:00Z,26.4645,-82.1044,1.47,4.63,1111122 
SCCF RECON,ioos:station:SCCF:56:1,2017-06-02T22:00:00Z,26.4645,-82.1044,1.54,7.04,1111122 
SCCF RECON,ioos:station:SCCF:56:1,2017-06-02T23:00:00Z,26.4645,-82.1044,1.61,7.27,1111122 
SCCF RECON,ioos:station:SCCF:56:1,2017-06-03T00:00:00Z,26.4645,-82.1044,1.66,6.77,1111122 
SCCF RECON,ioos:station:SCCF:56:1,2017-06-03T01:00:00Z,26.4645,-82.1044,1.69,6.68,1111122 
SCCF RECON,ioos:station:SCCF:56:1,2017-06-03T02:00:00Z,26.4645,-82.1044,1.685,5.44,1111122 
SCCF RECON,ioos:station:SCCF:56:1,2017-06-03T03:00:00Z,26.4645,-82.1044,1.64,6.21,1111122 
SCCF RECON,ioos:station:SCCF:56:1,2017-06-03T04:00:00Z,26.4645,-82.1044,1.56,6.13,1111122 
SCCF RECON,ioos:station:SCCF:56:1,2017-06-03T05:00:00Z,26.4645,-82.1044,1.486,4.68,1111122 
SCCF RECON,ioos:station:SCCF:56:1,2017-06-03T06:00:00Z,26.4645,-82.1044,1.408,3.66,1111122 
SCCF RECON,ioos:station:SCCF:56:1,2017-06-03T07:00:00Z,26.4645,-82.1044,1.33,2.66,1111122 
SCCF RECON,ioos:station:SCCF:56:1,2017-06-03T08:00:00Z,26.4645,-82.1044,1.309,2.27,1111122 
SCCF RECON,ioos:station:SCCF:56:1,2017-06-03T09:00:00Z,26.4645,-82.1044,1.381,2.45,1111122 
SCCF RECON,ioos:station:SCCF:56:1,2017-06-03T10:00:00Z,26.4645,-82.1044,1.523,3.43,1111122 
SCCF RECON,ioos:station:SCCF:56:1,2017-06-03T11:00:00Z,26.4645,-82.1044,1.64,2.82,1111122 
SCCF RECON,ioos:station:SCCF:56:1,2017-06-03T12:00:00Z,26.4645,-82.1044,1.73,3.86,1111122 
SCCF RECON,ioos:station:SCCF:56:1,2017-06-03T13:00:00Z,26.4645,-82.1044,1.792,4.15,1111122 
SCCF RECON,ioos:station:SCCF:56:1,2017-06-03T14:00:00Z,26.4645,-82.1044,1.84,4.23,1111122 
SCCF RECON,ioos:station:SCCF:56:1,2017-06-03T15:00:00Z,26.4645,-82.1044,1.83,4.73,1111122 
SCCF RECON,ioos:station:SCCF:56:1,2017-06-03T16:00:00Z,26.4645,-82.1044,1.75,4.59,1111122 
SCCF RECON,ioos:station:SCCF:56:1,2017-06-03T17:00:00Z,26.4645,-82.1044,1.63,4.94,1111122 
SCCF RECON,ioos:station:SCCF:56:1,2017-06-03T18:00:00Z,26.4645,-82.1044,1.52,4.8,1111122 
SCCF RECON,ioos:station:SCCF:56:1,2017-06-03T19:00:00Z,26.4645,-82.1044,1.43,4.59,1111122 
SCCF RECON,ioos:station:SCCF:56:1,2017-06-03T20:00:00Z,26.4645,-82.1044,1.35,4.81,1111122 
SCCF RECON,ioos:station:SCCF:56:1,2017-06-03T21:00:00Z,26.4645,-82.1044,1.318,4.81,1111122 
SCCF RECON,ioos:station:SCCF:56:1,2017-06-03T22:00:00Z,26.4645,-82.1044,1.38,5.62,1111122 
SCCF RECON,ioos:station:SCCF:56:1,2017-06-03T23:00:00Z,26.4645,-82.1044,1.51,8.18,1111122 
SCCF RECON,ioos:station:SCCF:56:1,2017-06-04T00:00:00Z,26.4645,-82.1044,1.55,7.88,1111122 
SCCF RECON,ioos:station:SCCF:56:1,2017-06-04T01:00:00Z,26.4645,-82.1044,1.59,7.77,1111122 
SCCF RECON,ioos:station:SCCF:56:1,2017-06-04T02:00:00Z,26.4645,-82.1044,1.63,7.37,1111122 
SCCF RECON,ioos:station:SCCF:56:1,2017-06-04T03:00:00Z,26.4645,-82.1044,1.66,6.25,1111122 
SCCF RECON,ioos:station:SCCF:56:1,2017-06-04T04:00:00Z,26.4645,-82.1044,1.64,5.87,1111122 
SCCF RECON,ioos:station:SCCF:56:1,2017-06-04T05:00:00Z,26.4645,-82.1044,1.6,5.97,1111122 
SCCF RECON,ioos:station:SCCF:56:1,2017-06-04T06:00:00Z,26.4645,-82.1044,1.53,6.02,1111122 
SCCF RECON,ioos:station:SCCF:56:1,2017-06-04T07:00:00Z,26.4645,-82.1044,1.48,5.26,1111122 
SCCF RECON,ioos:station:SCCF:56:1,2017-06-04T08:00:00Z,26.4645,-82.1044,1.42,4.72,1111122 
SCCF RECON,ioos:station:SCCF:56:1,2017-06-04T09:00:00Z,26.4645,-82.1044,1.39,3.72,1111122 
SCCF RECON,ioos:station:SCCF:56:1,2017-06-04T10:00:00Z,26.4645,-82.1044,1.47,3.83,1111122 
SCCF RECON,ioos:station:SCCF:56:1,2017-06-04T11:00:00Z,26.4645,-82.1044,1.6,3.73,1111122 
SCCF RECON,ioos:station:SCCF:56:1,2017-06-04T12:00:00Z,26.4645,-82.1044,1.713,2.91,1111122 
SCCF RECON,ioos:station:SCCF:56:1,2017-06-04T13:00:00Z,26.4645,-82.1044,1.79,4.37,1111122 
SCCF RECON,ioos:station:SCCF:56:1,2017-06-04T14:00:00Z,26.4645,-82.1044,1.85,4.67,1111122 
SCCF RECON,ioos:station:SCCF:56:1,2017-06-04T15:00:00Z,26.4645,-82.1044,1.85,5.03,1111122 
SCCF RECON,ioos:station:SCCF:56:1,2017-06-04T16:00:00Z,26.4645,-82.1044,1.81,4.37,1111122 
SCCF RECON,ioos:station:SCCF:56:1,2017-06-04T17:00:00Z,26.4645,-82.1044,1.71,5.21,1111122 
SCCF RECON,ioos:station:SCCF:56:1,2017-06-04T18:00:00Z,26.4645,-82.1044,1.59,4.9,1111122 
SCCF RECON,ioos:station:SCCF:56:1,2017-06-04T19:00:00Z,26.4645,-82.1044,1.48,4.7,1111122 
SCCF RECON,ioos:station:SCCF:56:1,2017-06-04T20:00:00Z,26.4645,-82.1044,1.38,4.55,1111122 
SCCF RECON,ioos:station:SCCF:56:1,2017-06-04T21:00:00Z,26.4645,-82.1044,1.271,5.01,1111122 
SCCF RECON,ioos:station:SCCF:56:1,2017-06-04T22:00:00Z,26.4645,-82.1044,1.25,6.32,1111122 
SCCF RECON,ioos:station:SCCF:56:1,2017-06-04T23:00:00Z,26.4645,-82.1044,1.34,6.21,1111122 
SCCF RECON,ioos:station:SCCF:56:1,2017-06-05T00:00:00Z,26.4645,-82.1044,1.48,6.98,1111122 
SCCF RECON,ioos:station:SCCF:56:1,2017-06-05T01:00:00Z,26.4645,-82.1044,1.58,6.5,1111122 
SCCF RECON,ioos:station:SCCF:56:1,2017-06-05T02:00:00Z,26.4645,-82.1044,1.66,6.06,1111122 
SCCF RECON,ioos:station:SCCF:56:1,2017-06-05T03:00:00Z,26.4645,-82.1044,1.71,5.37,1111122 
SCCF RECON,ioos:station:SCCF:56:1,2017-06-05T04:00:00Z,26.4645,-82.1044,1.73,5.39,1111122 
SCCF RECON,ioos:station:SCCF:56:1,2017-06-05T05:00:00Z,26.4645,-82.1044,1.71,5.23,1111122 
SCCF RECON,ioos:station:SCCF:56:1,2017-06-05T06:00:00Z,26.4645,-82.1044,1.68,5.08,1111122 
SCCF RECON,ioos:station:SCCF:56:1,2017-06-05T07:00:00Z,26.4645,-82.1044,1.609,5.06,1111122 
SCCF RECON,ioos:station:SCCF:56:1,2017-06-05T08:00:00Z,26.4645,-82.1044,1.528,4.5,1111122 
SCCF RECON,ioos:station:SCCF:56:1,2017-06-05T09:00:00Z,26.4645,-82.1044,1.482,4.31,1111122 
SCCF RECON,ioos:station:SCCF:56:1,2017-06-05T10:00:00Z,26.4645,-82.1044,1.496,3.91,1111122 
SCCF RECON,ioos:station:SCCF:56:1,2017-06-05T11:00:00Z,26.4645,-82.1044,1.617,3.27,1111122 
SCCF RECON,ioos:station:SCCF:56:1,2017-06-05T12:00:00Z,26.4645,-82.1044,1.73,2.95,1111122 
SCCF RECON,ioos:station:SCCF:56:1,2017-06-05T13:00:00Z,26.4645,-82.1044,1.834,3.09,1111122 
SCCF RECON,ioos:station:SCCF:56:1,2017-06-05T14:00:00Z,26.4645,-82.1044,1.89,4.23,1111122 
SCCF RECON,ioos:station:SCCF:56:1,2017-06-05T15:00:00Z,26.4645,-82.1044,1.911,4.95,1111122 
SCCF RECON,ioos:station:SCCF:56:1,2017-06-05T16:00:00Z,26.4645,-82.1044,1.91,5.29,1111122 
SCCF RECON,ioos:station:SCCF:56:1,2017-06-05T17:00:00Z,26.4645,-82.1044,1.87,5.01,1111122 
SCCF RECON,ioos:station:SCCF:56:1,2017-06-05T18:00:00Z,26.4645,-82.1044,1.709,4.6,1111122 
SCCF RECON,ioos:station:SCCF:56:1,2017-06-05T19:00:00Z,26.4645,-82.1044,1.581,3.72,1111122 
SCCF RECON,ioos:station:SCCF:56:1,2017-06-05T20:00:00Z,26.4645,-82.1044,1.48,3.24,1111122 
SCCF RECON,ioos:station:SCCF:56:1,2017-06-05T21:00:00Z,26.4645,-82.1044,1.33,3.25,1111122 
SCCF RECON,ioos:station:SCCF:56:1,2017-06-05T22:00:00Z,26.4645,-82.1044,1.22,3.06,1111122 
SCCF RECON,ioos:station:SCCF:56:1,2017-06-05T23:00:00Z,26.4645,-82.1044,1.17,3.8,1111122 
SCCF RECON,ioos:station:SCCF:56:1,2017-06-06T00:00:00Z,26.4645,-82.1044,1.29,3.56,1111122 
SCCF RECON,ioos:station:SCCF:56:1,2017-06-06T01:00:00Z,26.4645,-82.1044,1.47,4.05,1111122 
SCCF RECON,ioos:station:SCCF:56:1,2017-06-06T02:00:00Z,26.4645,-82.1044,1.57,3.69,1111122 
SCCF RECON,ioos:station:SCCF:56:1,2017-06-06T03:00:00Z,26.4645,-82.1044,1.64,4.27,1111122 
SCCF RECON,ioos:station:SCCF:56:1,2017-06-06T04:00:00Z,26.4645,-82.1044,1.681,4.51,1111122 
SCCF RECON,ioos:station:SCCF:56:1,2017-06-06T05:00:00Z,26.4645,-82.1044,1.71,4.69,1111122 
SCCF RECON,ioos:station:SCCF:56:1,2017-06-06T06:00:00Z,26.4645,-82.1044,1.7,4.34,1111122 
SCCF RECON,ioos:station:SCCF:56:1,2017-06-06T07:00:00Z,26.4645,-82.1044,1.63,4.05,1111122 
SCCF RECON,ioos:station:SCCF:56:1,2017-06-06T08:00:00Z,26.4645,-82.1044,1.61,4.23,1111122 
SCCF RECON,ioos:station:SCCF:56:1,2017-06-06T09:00:00Z,26.4645,-82.1044,1.51,3.42,1111122 
SCCF RECON,ioos:station:SCCF:56:1,2017-06-06T10:00:00Z,26.4645,-82.1044,1.49,3.1,1111122 
SCCF RECON,ioos:station:SCCF:56:1,2017-06-06T11:00:00Z,26.4645,-82.1044,1.591,3.25,1111122 
SCCF RECON,ioos:station:SCCF:56:1,2017-06-06T12:00:00Z,26.4645,-82.1044,1.7,3.19,1111122 
SCCF RECON,ioos:station:SCCF:56:1,2017-06-06T13:00:00Z,26.4645,-82.1044,1.83,3.76,1111122 
SCCF RECON,ioos:station:SCCF:56:1,2017-06-06T14:00:00Z,26.4645,-82.1044,1.93,5.11,1111122 
SCCF RECON,ioos:station:SCCF:56:1,2017-06-06T15:00:00Z,26.4645,-82.1044,1.982,5.32,1111122 
SCCF RECON,ioos:station:SCCF:56:1,2017-06-06T16:00:00Z,26.4645,-82.1044,1.97,5.35,1111122 
SCCF RECON,ioos:station:SCCF:56:1,2017-06-06T17:00:00Z,26.4645,-82.1044,1.921,4.58,1111122 
SCCF RECON,ioos:station:SCCF:56:1,2017-06-06T18:00:00Z,26.4645,-82.1044,1.84,4.73,1111122 
SCCF RECON,ioos:station:SCCF:56:1,2017-06-06T19:00:00Z,26.4645,-82.1044,1.765,5.22,1111122 
SCCF RECON,ioos:station:SCCF:56:1,2017-06-06T20:00:00Z,26.4645,-82.1044,1.61,5.26,1111122 
SCCF RECON,ioos:station:SCCF:56:1,2017-06-06T21:00:00Z,26.4645,-82.1044,1.499,5.15,1111122 
SCCF RECON,ioos:station:SCCF:56:1,2017-06-06T22:00:00Z,26.4645,-82.1044,1.48,5.16,1111122 
SCCF RECON,ioos:station:SCCF:56:1,2017-06-06T23:00:00Z,26.4645,-82.1044,1.373,5.01,1111122 
SCCF RECON,ioos:station:SCCF:56:1,2017-06-07T00:00:00Z,26.4645,-82.1044,1.33,5.04,1111122 
SCCF RECON,ioos:station:SCCF:56:1,2017-06-07T01:00:00Z,26.4645,-82.1044,1.427,4.83,1111122 
SCCF RECON,ioos:station:SCCF:56:1,2017-06-07T02:00:00Z,26.4645,-82.1044,1.54,4.83,1111122 
SCCF RECON,ioos:station:SCCF:56:1,2017-06-07T03:00:00Z,26.4645,-82.1044,1.64,5.12,1111122 
SCCF RECON,ioos:station:SCCF:56:1,2017-06-07T04:00:00Z,26.4645,-82.1044,1.69,4.68,1111122 
SCCF RECON,ioos:station:SCCF:56:1,2017-06-07T05:00:00Z,26.4645,-82.1044,1.82,4.93,1111122 
SCCF RECON,ioos:station:SCCF:56:1,2017-06-07T06:00:00Z,26.4645,-82.1044,1.803,5.05,1111122 
SCCF RECON,ioos:station:SCCF:56:1,2017-06-07T07:00:00Z,26.4645,-82.1044,1.8,4.63,1111122 
SCCF RECON,ioos:station:SCCF:56:1,2017-06-07T08:00:00Z,26.4645,-82.1044,1.75,4.49,1111122 
SCCF RECON,ioos:station:SCCF:56:1,2017-06-07T09:00:00Z,26.4645,-82.1044,1.69,4.38,1111122 
SCCF RECON,ioos:station:SCCF:56:1,2017-06-07T10:00:00Z,26.4645,-82.1044,1.55,3.76,1111122 
SCCF RECON,ioos:station:SCCF:56:1,2017-06-07T11:00:00Z,26.4645,-82.1044,1.56,3.52,1111122 
SCCF RECON,ioos:station:SCCF:56:1,2017-06-07T12:00:00Z,26.4645,-82.1044,1.671,4.13,1111122 
SCCF RECON,ioos:station:SCCF:56:1,2017-06-07T13:00:00Z,26.4645,-82.1044,1.789,4.6,1111122 
SCCF RECON,ioos:station:SCCF:56:1,2017-06-07T14:00:00Z,26.4645,-82.1044,1.895,5.43,1111122 
SCCF RECON,ioos:station:SCCF:56:1,2017-06-07T15:00:00Z,26.4645,-82.1044,2.02,5.78,1111122 
SCCF RECON,ioos:station:SCCF:56:1,2017-06-07T16:00:00Z,26.4645,-82.1044,2.061,5.92,1111122 
SCCF RECON,ioos:station:SCCF:56:1,2017-06-07T17:00:00Z,26.4645,-82.1044,2.051,5.9,1111122 
SCCF RECON,ioos:station:SCCF:56:1,2017-06-07T18:00:00Z,26.4645,-82.1044,2.08,5.49,1111122 
SCCF RECON,ioos:station:SCCF:56:1,2017-06-07T19:00:00Z,26.4645,-82.1044,1.878,5.42,1111122 
SCCF RECON,ioos:station:SCCF:56:1,2017-06-07T20:00:00Z,26.4645,-82.1044,1.75,4.83,1111122 
SCCF RECON,ioos:station:SCCF:56:1,2017-06-07T21:00:00Z,26.4645,-82.1044,1.615,4.6,1111122 
SCCF RECON,ioos:station:SCCF:56:1,2017-06-07T22:00:00Z,26.4645,-82.1044,1.444,3.95,1111122 
SCCF RECON,ioos:station:SCCF:56:1,2017-06-07T23:00:00Z,26.4645,-82.1044,1.321,3.81,1111122 
SCCF RECON,ioos:station:SCCF:56:1,2017-06-08T00:00:00Z,26.4645,-82.1044,1.245,3.63,1111122 
SCCF RECON,ioos:station:SCCF:56:1,2017-06-08T01:00:00Z,26.4645,-82.1044,1.336,3.97,1111122 
SCCF RECON,ioos:station:SCCF:56:1,2017-06-08T02:00:00Z,26.4645,-82.1044,1.49,4.05,1111122 
SCCF RECON,ioos:station:SCCF:56:1,2017-06-08T03:00:00Z,26.4645,-82.1044,1.634,4.39,1111122 
SCCF RECON,ioos:station:SCCF:56:1,2017-06-08T04:00:00Z,26.4645,-82.1044,1.743,4.49,1111122 
SCCF RECON,ioos:station:SCCF:56:1,2017-06-08T05:00:00Z,26.4645,-82.1044,1.824,4.51,1111122 
SCCF RECON,ioos:station:SCCF:56:1,2017-06-08T06:00:00Z,26.4645,-82.1044,1.838,4.83,1111122 
SCCF RECON,ioos:station:SCCF:56:1,2017-06-08T07:00:00Z,26.4645,-82.1044,1.777,4.2,1111122 
SCCF RECON,ioos:station:SCCF:56:1,2017-06-08T08:00:00Z,26.4645,-82.1044,1.746,4.43,1111122 
SCCF RECON,ioos:station:SCCF:56:1,2017-06-08T09:00:00Z,26.4645,-82.1044,1.68,4.13,1111122 
SCCF RECON,ioos:station:SCCF:56:1,2017-06-08T10:00:00Z,26.4645,-82.1044,1.596,3.56,1111122 
SCCF RECON,ioos:station:SCCF:56:1,2017-06-08T11:00:00Z,26.4645,-82.1044,1.578,3.37,1111122 
SCCF RECON,ioos:station:SCCF:56:1,2017-06-08T12:00:00Z,26.4645,-82.1044,1.642,3.51,1111122 
SCCF RECON,ioos:station:SCCF:56:1,2017-06-08T13:00:00Z,26.4645,-82.1044,1.759,4.1,1111122 
SCCF RECON,ioos:station:SCCF:56:1,2017-06-08T14:00:00Z,26.4645,-82.1044,1.883,5.22,1111122 
SCCF RECON,ioos:station:SCCF:56:1,2017-06-08T15:00:00Z,26.4645,-82.1044,1.951,5.56,1111122 
SCCF RECON,ioos:station:SCCF:56:1,2017-06-08T16:00:00Z,26.4645,-82.1044,2.03,5.57,1111122 
SCCF RECON,ioos:station:SCCF:56:1,2017-06-08T17:00:00Z,26.4645,-82.1044,1.981,5.49,1111122 
SCCF RECON,ioos:station:SCCF:56:1,2017-06-08T18:00:00Z,26.4645,-82.1044,1.901,5.93,1111122 
SCCF RECON,ioos:station:SCCF:56:1,2017-06-08T19:00:00Z,26.4645,-82.1044,1.77,5.69,1111122 
SCCF RECON,ioos:station:SCCF:56:1,2017-06-08T20:00:00Z,26.4645,-82.1044,1.637,5.73,1111122 
SCCF RECON,ioos:station:SCCF:56:1,2017-06-08T21:00:00Z,26.4645,-82.1044,1.498,5.56,1111122 
SCCF RECON,ioos:station:SCCF:56:1,2017-06-08T22:00:00Z,26.4645,-82.1044,1.351,5.76,1111122 
SCCF RECON,ioos:station:SCCF:56:1,2017-06-08T23:00:00Z,26.4645,-82.1044,1.237,6.22,1111122 
SCCF RECON,ioos:station:SCCF:56:1,2017-06-09T00:00:00Z,26.4645,-82.1044,1.144,6.43,1111122 
SCCF RECON,ioos:station:SCCF:56:1,2017-06-09T01:00:00Z,26.4645,-82.1044,1.13,6.59,1111122 
SCCF RECON,ioos:station:SCCF:56:1,2017-06-09T02:00:00Z,26.4645,-82.1044,1.247,6.17,1111122 
SCCF RECON,ioos:station:SCCF:56:1,2017-06-09T03:00:00Z,26.4645,-82.1044,1.42,6.16,1111122 
SCCF RECON,ioos:station:SCCF:56:1,2017-06-09T04:00:00Z,26.4645,-82.1044,1.534,6.35,1111122 
SCCF RECON,ioos:station:SCCF:56:1,2017-06-09T05:00:00Z,26.4645,-82.1044,1.63,5.51,1111122 
SCCF RECON,ioos:station:SCCF:56:1,2017-06-09T06:00:00Z,26.4645,-82.1044,1.69,5.33,1111122 
SCCF RECON,ioos:station:SCCF:56:1,2017-06-09T07:00:00Z,26.4645,-82.1044,1.71,5.39,1111122 
SCCF RECON,ioos:station:SCCF:56:1,2017-06-09T08:00:00Z,26.4645,-82.1044,1.687,6.07,1111122 
SCCF RECON,ioos:station:SCCF:56:1,2017-06-09T09:00:00Z,26.4645,-82.1044,1.61,5.56,1111122 
SCCF RECON,ioos:station:SCCF:56:1,2017-06-09T10:00:00Z,26.4645,-82.1044,1.56,4.95,1111122 
SCCF RECON,ioos:station:SCCF:56:1,2017-06-09T11:00:00Z,26.4645,-82.1044,1.54,4.62,1111122 
SCCF RECON,ioos:station:SCCF:56:1,2017-06-09T12:00:00Z,26.4645,-82.1044,1.529,4.24,1111122 
SCCF RECON,ioos:station:SCCF:56:1,2017-06-09T13:00:00Z,26.4645,-82.1044,1.56,4.22,1111122 
SCCF RECON,ioos:station:SCCF:56:1,2017-06-09T14:00:00Z,26.4645,-82.1044,1.669,5.68,1111122 
SCCF RECON,ioos:station:SCCF:56:1,2017-06-09T15:00:00Z,26.4645,-82.1044,1.801,6.43,1111122 
SCCF RECON,ioos:station:SCCF:56:1,2017-06-09T16:00:00Z,26.4645,-82.1044,1.898,7.58,1111122 
SCCF RECON,ioos:station:SCCF:56:1,2017-06-09T17:00:00Z,26.4645,-82.1044,1.94,8.49,1111122 
SCCF RECON,ioos:station:SCCF:56:1,2017-06-09T18:00:00Z,26.4645,-82.1044,1.9,7.93,1111122 
SCCF RECON,ioos:station:SCCF:56:1,2017-06-09T19:00:00Z,26.4645,-82.1044,1.801,7.68,1111122 
SCCF RECON,ioos:station:SCCF:56:1,2017-06-09T20:00:00Z,26.4645,-82.1044,1.65,7.84,1111122 
SCCF RECON,ioos:station:SCCF:56:1,2017-06-09T21:00:00Z,26.4645,-82.1044,1.495,7.04,1111122 
SCCF RECON,ioos:station:SCCF:56:1,2017-06-09T22:00:00Z,26.4645,-82.1044,1.37,7.08,1111122 
SCCF RECON,ioos:station:SCCF:56:1,2017-06-09T23:00:00Z,26.4645,-82.1044,1.26,7.39,1111122 
SCCF RECON,ioos:station:SCCF:56:1,2017-06-10T00:00:00Z,26.4645,-82.1044,1.169,7.49,1111122 
SCCF RECON,ioos:station:SCCF:56:1,2017-06-10T01:00:00Z,26.4645,-82.1044,1.11,7.25,1111122 
SCCF RECON,ioos:station:SCCF:56:1,2017-06-10T02:00:00Z,26.4645,-82.1044,1.18,6.86,1111122 
SCCF RECON,ioos:station:SCCF:56:1,2017-06-10T03:00:00Z,26.4645,-82.1044,1.398,7.07,1111122 
SCCF RECON,ioos:station:SCCF:56:1,2017-06-10T04:00:00Z,26.4645,-82.1044,1.449,8.03,1111122 
SCCF RECON,ioos:station:SCCF:56:1,2017-06-10T05:00:00Z,26.4645,-82.1044,1.585,7.0,1111122 
SCCF RECON,ioos:station:SCCF:56:1,2017-06-10T06:00:00Z,26.4645,-82.1044,1.687,6.46,1111122 
SCCF RECON,ioos:station:SCCF:56:1,2017-06-10T07:00:00Z,26.4645,-82.1044,1.75,5.82,1111122 
SCCF RECON,ioos:station:SCCF:56:1,2017-06-10T08:00:00Z,26.4645,-82.1044,1.779,7.18,1111122 
SCCF RECON,ioos:station:SCCF:56:1,2017-06-10T09:00:00Z,26.4645,-82.1044,1.729,6.55,1111122 
SCCF RECON,ioos:station:SCCF:56:1,2017-06-10T10:00:00Z,26.4645,-82.1044,1.652,6.14,1111122 
SCCF RECON,ioos:station:SCCF:56:1,2017-06-10T11:00:00Z,26.4645,-82.1044,1.63,5.66,1111122 
SCCF RECON,ioos:station:SCCF:56:1,2017-06-10T12:00:00Z,26.4645,-82.1044,1.6,5.53,1111122 
SCCF RECON,ioos:station:SCCF:56:1,2017-06-10T13:00:00Z,26.4645,-82.1044,1.62,5.28,1111122 
SCCF RECON,ioos:station:SCCF:56:1,2017-06-10T14:00:00Z,26.4645,-82.1044,1.742,5.38,1111122 
SCCF RECON,ioos:station:SCCF:56:1,2017-06-10T15:00:00Z,26.4645,-82.1044,1.87,6.23,1111122 
SCCF RECON,ioos:station:SCCF:56:1,2017-06-10T16:00:00Z,26.4645,-82.1044,1.921,6.07,1111122 
SCCF RECON,ioos:station:SCCF:56:1,2017-06-10T17:00:00Z,26.4645,-82.1044,1.94,6.35,1111122 
SCCF RECON,ioos:station:SCCF:56:1,2017-06-10T18:00:00Z,26.4645,-82.1044,1.931,6.06,1111122 
SCCF RECON,ioos:station:SCCF:56:1,2017-06-10T19:00:00Z,26.4645,-82.1044,1.905,5.91,1111122 
SCCF RECON,ioos:station:SCCF:56:1,2017-06-10T20:00:00Z,26.4645,-82.1044,1.796,5.44,1111122 
SCCF RECON,ioos:station:SCCF:56:1,2017-06-10T21:00:00Z,26.4645,-82.1044,1.636,5.13,1111122 
SCCF RECON,ioos:station:SCCF:56:1,2017-06-10T22:00:00Z,26.4645,-82.1044,1.5,4.36,1111122 
SCCF RECON,ioos:station:SCCF:56:1,2017-06-10T23:00:00Z,26.4645,-82.1044,1.389,4.11,1111122 
SCCF RECON,ioos:station:SCCF:56:1,2017-06-11T00:00:00Z,26.4645,-82.1044,1.281,3.92,1111122 
SCCF RECON,ioos:station:SCCF:56:1,2017-06-11T01:00:00Z,26.4645,-82.1044,1.161,3.66,1111122 
SCCF RECON,ioos:station:SCCF:56:1,2017-06-11T02:00:00Z,26.4645,-82.1044,1.113,3.36,1111122 
SCCF RECON,ioos:station:SCCF:56:1,2017-06-11T03:00:00Z,26.4645,-82.1044,1.2,3.31,1111122 
SCCF RECON,ioos:station:SCCF:56:1,2017-06-11T04:00:00Z,26.4645,-82.1044,1.38,4.82,1111122 
SCCF RECON,ioos:station:SCCF:56:1,2017-06-11T05:00:00Z,26.4645,-82.1044,1.51,4.91,1111122 
SCCF RECON,ioos:station:SCCF:56:1,2017-06-11T06:00:00Z,26.4645,-82.1044,1.61,4.64,1111122 
SCCF RECON,ioos:station:SCCF:56:1,2017-06-11T07:00:00Z,26.4645,-82.1044,1.68,5.05,1111122 
SCCF RECON,ioos:station:SCCF:56:1,2017-06-11T08:00:00Z,26.4645,-82.1044,1.71,4.57,1111122 
SCCF RECON,ioos:station:SCCF:56:1,2017-06-11T09:00:00Z,26.4645,-82.1044,1.701,4.71,1111122 
SCCF RECON,ioos:station:SCCF:56:1,2017-06-11T10:00:00Z,26.4645,-82.1044,1.661,4.73,1111122 
SCCF RECON,ioos:station:SCCF:56:1,2017-06-11T11:00:00Z,26.4645,-82.1044,1.628,4.34,1111122 
SCCF RECON,ioos:station:SCCF:56:1,2017-06-11T12:00:00Z,26.4645,-82.1044,1.577,3.74,1111122 
SCCF RECON,ioos:station:SCCF:56:1,2017-06-11T13:00:00Z,26.4645,-82.1044,1.568,3.79,1111122 
SCCF RECON,ioos:station:SCCF:56:1,2017-06-11T14:00:00Z,26.4645,-82.1044,1.6,3.82,1111122 
SCCF RECON,ioos:station:SCCF:56:1,2017-06-11T15:00:00Z,26.4645,-82.1044,1.715,5.98,1111122 
SCCF RECON,ioos:station:SCCF:56:1,2017-06-11T16:00:00Z,26.4645,-82.1044,1.849,6.14,1111122 
SCCF RECON,ioos:station:SCCF:56:1,2017-06-11T17:00:00Z,26.4645,-82.1044,1.92,6.36,1111122 
SCCF RECON,ioos:station:SCCF:56:1,2017-06-11T18:00:00Z,26.4645,-82.1044,1.95,6.48,1111122 
SCCF RECON,ioos:station:SCCF:56:1,2017-06-11T19:00:00Z,26.4645,-82.1044,1.942,6.61,1111122 
SCCF RECON,ioos:station:SCCF:56:1,2017-06-11T20:00:00Z,26.4645,-82.1044,1.88,6.86,1111122 